Wind_Speed
4 4 4 4 4 4 4 5 5 6 6 7 7 7 7 7 6 6 6 7 6 6 5 6 6 6 6 6 5 5 5 5 5 5 5 6 5 6 6 6 6 6 6 6 6 6 7 7 6
5 5 5 5 5 5 5 5 6 6 6 7 7 7 7 7 6 6 7 6 6 6 6 6 7 7 7 6 6 6 6 5 5 5 5 5 5 5 6 6 6 6 6 6 6 6 7 7 7
5 6 6 5 5 6 6 7 7 7 6 7 7 7 8 7 7 7 7 6 6 6 7 7 7 7 7 7 7 7 6 6 6 6 5 6 6 5 5 6 6 6 6 6 6 6 7 7 7
5 6 6 6 7 7 7 8 8 7 7 7 8 8 8 7 7 7 7 7 7 7 7 7 7 7 7 7 7 7 7 7 7 7 7 7 6 6 6 6 6 7 7 7 7 7 8 8 8
6 7 7 7 8 8 9 9 9 9 8 8 8 8 7 7 7 7 7 7 8 7 7 7 7 7 7 8 7 7 7 7 7 7 7 7 7 7 6 7 7 7 8 8 8 8 9 9 9
7 8 8 8 8 9 9 9 10 9 8 8 8 7 7 7 7 7 7 7 7 7 7 8 8 8 7 7 7 7 6 6 6 7 7 8 8 7 7 7 8 8 8 9 9 9 10 10 10
7 8 8 7 8 9 9 9 10 10 9 9 8 8 7 7 7 7 7 7 7 7 7 7 8 8 8 7 7 7 7 7 8 7 8 8 8 8 8 8 9 9 9 10 10 11 11 11 11
8 8 8 8 9 9 10 9 10 10 9 9 8 8 7 7 7 7 7 7 7 7 7 7 7 8 8 8 8 8 8 8 9 8 8 8 8 8 7 8 9 9 10 11 11 12 13 13 13
8 8 8 8 9 9 10 10 10 10 9 9 8 8 8 8 8 7 7 7 7 6 7 7 7 7 8 8 8 8 9 9 9 9 9 9 9 9 9 9 9 10 11 11 12 13 14 14 14
7 7 8 8 8 9 9 9 9 9 9 9 8 8 8 8 7 7 7 7 7 7 6 7 7 7 7 8 8 8 9 9 9 9 9 10 9 9 10 10 11 11 11 12 12 12 13 13 14
7 7 7 7 8 8 8 8 8 8 8 8 8 8 8 8 8 7 7 7 7 7 7 7 7 7 8 8 8 9 9 9 9 9 10 10 10 10 10 10 11 12 12 12 13 13 13 13 14
6 6 7 7 7 7 7 7 7 7 7 7 8 8 8 8 8 8 8 8 7 7 7 7 7 8 8 8 9 9 9 9 9 10 10 11 11 11 11 10 11 11 12 12 13 13 14 14 14
5 5 6 6 7 7 7 7 7 7 7 8 8 9 9 9 9 9 8 8 8 7 7 8 8 8 8 8 8 8 9 9 9 10 10 10 11 11 11 11 11 11 12 12 13 13 14 14 14
5 5 5 6 7 7 7 7 7 7 8 8 9 9 10 10 10 9 9 9 8 8 8 8 8 8 8 9 9 8 9 9 9 10 10 11 12 12 12 12 12 13 13 13 13 13 14 14 14
5 5 5 6 7 7 8 8 7 8 8 9 9 10 10 10 10 10 9 9 8 8 8 8 9 9 9 9 10 10 10 10 11 11 12 12 12 13 14 13 14 14 14 14 14 14 14 15 15
5 5 6 6 7 8 8 8 8 9 9 10 10 10 10 10 10 10 10 9 9 9 9 9 9 10 10 10 11 11 11 11 12 12 13 14 14 14 15 14 14 14 14 14 15 15 14 15 15
6 7 7 7 8 8 8 8 8 9 10 10 10 11 10 10 10 11 11 11 11 11 10 11 11 11 11 11 12 12 12 13 13 14 14 15 15 15 15 15 15 15 15 15 15 16 15 15 15
7 7 8 8 9 9 9 10 10 10 10 11 11 11 11 11 12 12 12 12 12 12 12 13 13 13 12 13 13 13 13 13 14 15 15 15 16 16 15 15 15 15 15 15 16 16 16 16 16
9 9 10 10 11 10 10 11 11 11 11 11 11 12 12 13 13 13 13 13 13 13 14 14 13 13 14 14 14 14 14 14 15 15 16 16 16 16 16 16 16 16 16 16 17 17 17 16 16
10 10 11 11 12 11 11 11 11 12 12 12 12 12 12 13 14 13 13 13 13 14 14 14 13 14 14 14 15 15 15 16 16 16 16 16 16 16 16 16 16 16 16 17 17 16 16 15 15
11 11 12 12 12 12 12 13 12 12 12 13 13 13 13 14 14 14 14 15 15 14 15 15 15 15 15 15 16 16 16 15 16 16 16 16 16 16 16 17 17 17 17 17 16 16 16 15 16
12 12 13 13 13 12 12 13 13 14 13 13 13 14 15 15 15 15 15 16 16 16 16 15 16 16 16 16 15 16 16 16 16 16 16 16 17 17 17 17 17 17 17 17 17 16 16 16 16
13 13 13 13 13 13 12 14 13 15 16 15 14 15 16 16 17 16 16 16 16 16 16 16 16 16 17 16 16 17 17 17 17 17 17 18 18 18 18 18 18 18 19 18 18 17 17 17 17
13 13 13 13 13 13 13 14 14 15 17 16 16 15 16 17 17 17 17 17 17 17 17 17 17 17 17 17 18 18 18 18 18 18 18 18 18 18 18 18 19 19 19 18 18 18 18 18 18
14 13 13 13 13 13 14 15 15 16 17 17 18 17 17 18 18 18 17 17 17 17 17 17 17 18 18 18 19 19 19 19 19 19 19 19 19 19 19 19 20 20 20 19 19 19 19 18 18
15 15 13 13 12 13 15 15 16 17 17 18 18 18 18 18 18 19 18 18 18 18 18 18 18 18 19 19 20 20 19 19 20 20 19 19 19 19 20 20 21 21 20 20 19 19 19 19 18
16 16 15 15 14 14 15 15 17 17 17 18 18 18 18 18 18 19 19 19 19 19 19 19 18 18 19 20 20 20 21 20 21 21 20 20 20 20 21 21 21 21 20 20 20 20 19 19 19
17 16 16 16 15 15 15 15 16 18 18 17 18 18 17 18 18 19 19 19 19 19 20 20 19 19 19 20 21 21 21 21 21 22 21 21 21 21 21 22 22 21 21 21 21 20 20 20 20
18 17 17 17 17 16 16 16 17 18 18 17 17 18 18 18 18 19 19 19 19 19 20 20 20 20 20 20 21 21 21 21 22 22 21 22 22 23 23 23 22 22 21 21 22 22 22 21 21
18 18 18 18 17 18 19 17 17 18 19 18 18 19 19 19 18 18 18 18 18 19 20 21 21 21 21 22 21 22 22 22 22 22 22 23 23 23 23 23 23 22 22 22 22 22 23 22 22
Wind_Direction
259 253 250 254 262 255 260 269 267 269 273 275 272 269 266 272 275 276 280 283 275 272 272 267 267 268 272 278 278 276 272 276 268 267 264 264 268 266 253 248 248 251 246 248 248 248 254 257 258
259 254 253 258 258 261 260 268 273 278 276 274 271 271 272 275 283 287 285 285 280 278 280 276 270 270 271 274 275 276 274 272 272 273 272 270 273 270 258 249 254 256 253 255 250 251 253 255 258
257 254 257 260 257 264 269 268 271 271 272 273 269 267 268 270 276 277 278 276 277 277 274 271 269 271 272 270 269 270 272 270 269 269 271 272 275 274 260 254 258 260 259 258 257 259 259 261 262
259 255 255 258 258 259 261 269 272 272 272 272 270 269 269 268 270 270 273 272 271 272 271 270 269 272 275 274 273 270 269 270 269 269 270 272 272 278 268 263 265 268 264 263 265 265 265 268 267
262 256 255 254 260 262 262 263 269 273 270 271 272 271 270 268 266 269 273 270 270 272 271 270 267 270 272 275 274 272 270 269 270 271 271 267 266 271 270 265 267 270 269 270 271 271 269 268 269
255 256 259 260 265 263 266 266 268 269 270 268 265 267 268 269 269 274 274 273 272 273 272 270 269 274 273 271 271 273 272 272 277 274 272 269 267 266 269 271 268 269 271 270 272 272 272 271 270
259 258 260 264 267 263 266 267 268 268 268 267 264 263 266 269 268 274 277 279 278 276 277 274 271 276 276 275 274 273 273 273 275 277 274 273 271 268 273 274 270 269 271 271 272 272 273 273 273
254 257 259 262 264 263 265 267 267 266 265 265 264 263 264 267 270 277 279 281 283 281 281 277 274 273 275 275 276 274 274 276 278 278 277 274 275 276 281 280 277 275 273 274 275 274 274 274 273
249 251 258 265 266 266 265 265 264 261 259 258 259 262 265 267 270 274 278 281 285 287 283 281 275 274 275 277 278 278 277 279 279 277 276 278 279 280 283 281 279 278 276 275 275 275 274 274 274
251 257 260 263 265 265 262 262 262 257 255 255 257 260 263 268 270 273 277 280 281 285 287 286 280 279 279 279 280 279 278 279 278 276 276 279 280 280 284 283 280 279 278 277 277 278 277 276 275
254 255 259 264 267 268 266 263 262 258 253 254 257 258 260 265 269 272 277 279 281 283 285 286 285 285 283 281 281 279 278 278 278 277 278 281 281 281 285 287 286 281 278 278 278 277 278 277 276
254 255 259 266 268 270 271 267 264 263 261 260 262 263 269 272 275 280 283 280 281 285 290 292 292 289 288 286 283 280 277 278 279 279 280 283 284 282 286 289 292 286 282 281 280 277 275 275 276
255 260 264 265 264 267 269 269 271 271 269 267 272 271 272 276 277 278 280 277 279 283 286 288 291 291 291 290 285 282 279 280 280 279 280 283 286 286 288 292 293 291 287 285 283 282 280 278 278
262 263 264 268 267 268 271 271 270 272 271 271 273 276 276 276 277 277 275 276 277 280 283 285 290 291 294 294 292 288 285 284 284 282 284 285 285 288 292 292 293 294 292 290 287 286 284 284 282
261 264 272 275 273 273 274 272 272 271 271 271 274 277 277 275 277 278 277 272 274 278 280 281 285 290 292 294 292 289 287 286 286 287 288 289 289 289 290 294 293 293 291 290 289 290 287 285 283
269 272 277 280 278 277 276 277 276 273 271 272 275 278 278 275 275 276 274 273 273 272 274 278 284 287 288 292 292 291 290 288 286 287 289 289 289 288 289 293 293 293 292 292 292 292 290 286 283
274 276 277 280 280 278 276 277 278 276 274 276 277 277 277 275 275 276 275 275 276 275 277 279 281 283 283 287 290 292 291 290 289 289 289 289 289 289 289 291 291 290 291 291 291 290 290 289 284
268 270 273 280 282 276 277 279 280 279 277 277 277 277 276 276 276 278 280 280 278 278 281 282 281 281 281 285 287 289 288 289 290 289 289 290 290 290 290 290 292 292 292 291 291 292 290 290 288
267 270 271 274 278 279 277 280 281 280 280 278 277 278 278 277 278 279 278 278 279 278 280 281 283 285 283 285 285 285 287 289 290 291 291 292 293 293 293 292 292 293 292 291 291 292 293 292 291
265 269 273 274 276 279 280 281 279 280 280 279 279 277 277 278 280 280 279 279 280 280 280 279 281 283 286 284 283 285 289 292 294 294 294 296 296 296 294 295 294 293 293 292 291 291 291 290 291
266 272 276 275 275 276 278 283 283 281 279 281 282 281 279 278 279 282 281 281 281 280 281 282 284 286 288 288 289 287 289 292 294 296 296 297 296 294 293 294 293 292 291 291 289 288 287 286 288
264 271 275 276 276 280 283 287 286 286 282 282 281 282 284 284 285 284 282 282 282 280 278 280 282 282 283 286 288 287 290 292 293 294 296 297 296 294 294 294 294 292 291 290 288 286 287 286 287
263 266 272 277 280 279 281 285 286 285 285 283 281 282 283 285 286 285 282 282 281 279 279 280 280 280 281 284 286 286 286 289 293 294 295 295 295 293 292 294 294 292 290 289 288 286 287 286 285
261 262 268 275 278 281 282 283 284 284 285 285 282 282 281 283 282 282 281 282 280 278 280 282 280 280 281 283 284 285 286 290 292 295 296 295 294 294 294 293 294 293 291 289 288 287 286 285 285
259 261 269 273 278 281 280 281 281 281 285 285 284 284 283 281 279 279 280 279 279 278 278 281 280 278 279 280 283 285 285 288 292 294 295 294 293 293 293 293 293 292 291 290 287 287 286 284 283
260 262 267 269 274 277 279 284 283 282 284 284 284 284 284 284 280 280 280 278 278 277 277 278 278 277 278 280 282 283 284 286 289 293 293 293 293 293 293 292 293 291 291 289 287 287 287 284 282
260 261 263 264 266 269 274 280 282 282 285 285 285 284 283 284 283 282 280 278 279 277 277 278 279 279 279 282 282 282 283 285 287 291 292 292 292 293 294 292 291 290 289 289 288 287 285 284 283
262 263 262 262 265 269 270 275 280 285 288 289 287 285 286 286 287 286 283 279 278 277 277 277 279 280 281 282 284 283 284 285 287 288 289 291 292 294 294 293 291 289 287 286 287 287 286 285 284
260 261 264 265 266 268 270 271 278 283 288 288 286 285 286 287 286 288 286 282 278 276 277 278 279 279 279 281 283 284 284 286 286 287 288 289 291 293 296 293 292 290 288 287 286 284 285 284 284
260 264 265 267 268 266 269 273 276 278 284 286 285 285 286 289 290 289 288 285 282 279 279 279 279 280 280 280 282 283 283 285 285 286 288 288 290 292 295 294 292 290 289 288 287 285 284 283 283
Height
5858 5858 5859 5860 5860 5860 5859 5860 5860 5860 5861 5861 5861 5861 5861 5862 5863 5866 5864 5863 5863 5863 5864 5864 5864 5864 5864 5864 5864 5864 5864 5864 5864 5864 5864 5864 5864 5864 5864 5865 5865 5865 5866 5866 5866 5866 5867 5867 5867
5857 5857 5858 5859 5859 5858 5859 5859 5859 5859 5860 5860 5860 5860 5861 5861 5862 5862 5862 5862 5862 5862 5863 5863 5863 5863 5863 5863 5863 5863 5863 5863 5863 5863 5863 5863 5863 5863 5863 5864 5864 5864 5865 5865 5865 5865 5866 5866 5866
5856 5856 5858 5857 5857 5857 5858 5858 5858 5858 5859 5859 5859 5860 5860 5860 5860 5861 5861 5861 5861 5861 5861 5861 5861 5862 5862 5862 5862 5862 5862 5862 5862 5862 5862 5862 5862 5862 5862 5863 5863 5863 5863 5864 5864 5864 5864 5865 5865
5855 5856 5857 5857 5856 5856 5856 5857 5857 5857 5858 5858 5858 5859 5858 5859 5859 5859 5860 5860 5860 5860 5860 5860 5860 5860 5860 5860 5860 5860 5860 5860 5860 5861 5861 5861 5861 5861 5861 5862 5862 5862 5862 5862 5863 5863 5863 5863 5863
5854 5855 5856 5855 5855 5855 5855 5855 5856 5856 5856 5857 5857 5857 5857 5858 5858 5858 5858 5859 5859 5859 5859 5859 5859 5859 5859 5859 5859 5859 5859 5859 5859 5859 5859 5859 5860 5860 5860 5860 5861 5861 5861 5861 5861 5861 5861 5862 5862
5853 5853 5854 5853 5854 5854 5854 5854 5854 5855 5855 5855 5856 5856 5856 5857 5857 5857 5857 5858 5858 5858 5858 5858 5858 5858 5858 5858 5858 5858 5858 5858 5858 5858 5858 5858 5858 5859 5859 5859 5859 5859 5860 5860 5859 5860 5860 5860 5860
5852 5852 5852 5852 5852 5852 5853 5853 5853 5853 5854 5854 5855 5855 5855 5855 5856 5856 5856 5856 5856 5857 5857 5857 5857 5857 5857 5857 5857 5857 5857 5857 5857 5857 5857 5857 5857 5857 5857 5857 5857 5858 5858 5858 5858 5858 5858 5858 5858
5850 5851 5850 5850 5851 5851 5851 5851 5852 5852 5852 5853 5854 5854 5854 5855 5855 5855 5855 5855 5855 5855 5855 5855 5855 5855 5855 5855 5855 5855 5855 5855 5855 5855 5855 5855 5855 5855 5856 5856 5856 5856 5856 5856 5856 5856 5856 5856 5856
5849 5850 5849 5849 5850 5850 5850 5850 5850 5850 5851 5852 5852 5853 5853 5853 5854 5854 5854 5854 5854 5854 5854 5854 5854 5854 5854 5854 5854 5854 5854 5854 5854 5854 5854 5854 5854 5854 5854 5854 5854 5854 5853 5853 5853 5853 5853 5853 5853
5848 5848 5848 5848 5848 5849 5849 5849 5849 5849 5850 5851 5851 5851 5852 5852 5852 5852 5853 5853 5853 5853 5853 5852 5852 5853 5853 5852 5852 5853 5853 5852 5852 5852 5852 5852 5852 5852 5851 5851 5851 5851 5851 5851 5851 5851 5850 5850 5850
5846 5847 5847 5847 5847 5847 5847 5848 5848 5848 5849 5849 5850 5850 5851 5851 5851 5851 5851 5852 5851 5851 5851 5851 5851 5851 5851 5851 5851 5851 5851 5851 5851 5850 5850 5850 5850 5850 5849 5849 5849 5849 5849 5848 5848 5848 5848 5848 5848
5845 5846 5846 5846 5846 5846 5846 5847 5847 5847 5848 5848 5848 5849 5849 5850 5850 5850 5850 5850 5850 5850 5850 5850 5850 5850 5850 5849 5849 5849 5849 5849 5849 5849 5849 5848 5848 5848 5847 5847 5847 5846 5846 5846 5845 5845 5845 5845 5844
5844 5844 5845 5845 5845 5845 5846 5846 5846 5846 5847 5847 5847 5848 5848 5848 5848 5848 5849 5848 5848 5849 5848 5848 5848 5848 5848 5848 5848 5848 5847 5847 5847 5847 5846 5846 5846 5845 5845 5845 5844 5844 5843 5843 5842 5842 5842 5841 5841
5843 5843 5843 5844 5844 5844 5845 5845 5845 5845 5845 5846 5846 5846 5846 5847 5847 5847 5847 5847 5847 5847 5847 5847 5847 5847 5846 5846 5846 5846 5846 5845 5845 5845 5844 5844 5843 5843 5843 5842 5842 5841 5840 5840 5839 5839 5838 5838 5838
5841 5842 5842 5843 5843 5843 5844 5844 5844 5844 5844 5844 5844 5844 5845 5845 5845 5845 5845 5845 5845 5846 5845 5845 5845 5845 5845 5844 5844 5844 5843 5843 5843 5842 5842 5841 5841 5840 5840 5839 5839 5838 5837 5837 5836 5836 5835 5835 5834
5840 5841 5841 5842 5841 5842 5844 5843 5843 5842 5842 5842 5843 5843 5843 5843 5843 5843 5843 5843 5843 5843 5844 5843 5843 5843 5842 5842 5842 5841 5841 5841 5840 5840 5839 5839 5838 5838 5837 5836 5836 5835 5834 5834 5833 5832 5832 5831 5830
5839 5840 5840 5840 5840 5840 5841 5841 5841 5840 5841 5841 5841 5841 5841 5841 5841 5841 5841 5841 5841 5841 5841 5841 5841 5840 5840 5840 5840 5839 5839 5838 5838 5837 5836 5836 5835 5834 5834 5833 5833 5832 5831 5830 5829 5829 5828 5827 5826
5838 5838 5838 5839 5838 5838 5838 5839 5839 5839 5839 5839 5839 5838 5838 5839 5839 5839 5839 5839 5839 5839 5839 5838 5838 5838 5838 5838 5837 5837 5836 5836 5835 5834 5833 5832 5832 5831 5830 5830 5829 5828 5828 5827 5826 5825 5824 5823 5822
5836 5836 5836 5837 5836 5837 5836 5836 5837 5836 5837 5837 5837 5836 5836 5836 5836 5837 5836 5836 5836 5836 5836 5835 5835 5835 5835 5835 5834 5834 5833 5833 5832 5831 5830 5829 5828 5827 5827 5826 5825 5824 5824 5823 5822 5820 5820 5819 5818
5834 5834 5834 5834 5834 5834 5834 5835 5834 5834 5834 5835 5834 5834 5834 5833 5833 5834 5834 5833 5833 5833 5833 5833 5832 5832 5832 5831 5831 5830 5830 5829 5828 5827 5826 5826 5825 5824 5823 5822 5821 5820 5820 5819 5817 5816 5816 5815 5814
5831 5831 5831 5832 5832 5832 5832 5833 5832 5832 5832 5832 5832 5831 5831 5831 5830 5830 5831 5830 5830 5830 5830 5829 5829 5829 5828 5828 5827 5827 5826 5825 5825 5824 5823 5822 5821 5820 5819 5819 5818 5817 5816 5815 5813 5812 5812 5811 5811
5828 5829 5829 5829 5829 5829 5830 5830 5830 5829 5829 5829 5829 5828 5828 5827 5827 5828 5827 5827 5827 5826 5826 5826 5826 5825 5825 5824 5824 5824 5823 5822 5821 5820 5819 5818 5817 5816 5815 5814 5813 5812 5811 5810 5810 5809 5808 5807 5807
5825 5826 5826 5826 5826 5827 5827 5827 5828 5826 5826 5826 5826 5825 5824 5824 5824 5824 5824 5823 5823 5822 5822 5822 5822 5821 5821 5821 5820 5820 5819 5818 5817 5816 5815 5814 5813 5812 5811 5810 5809 5808 5807 5806 5805 5804 5804 5803 5802
5822 5823 5823 5823 5823 5824 5824 5825 5825 5824 5823 5822 5822 5822 5821 5821 5820 5820 5820 5819 5819 5818 5818 5818 5818 5818 5817 5817 5816 5816 5815 5814 5813 5812 5811 5810 5809 5808 5807 5806 5805 5804 5802 5801 5800 5800 5799 5798 5797
5819 5820 5820 5820 5820 5822 5822 5822 5822 5820 5820 5819 5818 5818 5818 5817 5817 5816 5816 5815 5815 5814 5814 5814 5813 5813 5813 5813 5812 5811 5811 5810 5809 5808 5807 5806 5805 5804 5803 5802 5800 5799 5798 5797 5796 5795 5794 5794 5793
5816 5817 5818 5818 5819 5819 5818 5818 5818 5816 5816 5815 5815 5814 5814 5813 5812 5812 5811 5811 5811 5810 5810 5809 5809 5809 5808 5808 5807 5807 5806 5806 5805 5804 5803 5802 5801 5800 5798 5797 5795 5794 5793 5792 5791 5790 5789 5788 5788
5812 5812 5814 5814 5814 5815 5815 5815 5814 5813 5813 5812 5811 5810 5809 5809 5808 5807 5806 5806 5806 5805 5805 5804 5804 5804 5803 5803 5802 5802 5802 5801 5800 5799 5798 5797 5796 5795 5793 5792 5790 5789 5788 5787 5786 5785 5784 5783 5782
5808 5809 5810 5810 5810 5810 5811 5811 5810 5808 5808 5808 5807 5806 5805 5805 5804 5803 5802 5800 5800 5800 5800 5799 5799 5799 5798 5798 5797 5797 5796 5796 5795 5794 5793 5792 5791 5789 5788 5786 5785 5784 5782 5781 5780 5779 5778 5778 5777
5804 5805 5805 5806 5806 5807 5806 5809 5806 5805 5804 5804 5803 5802 5801 5800 5800 5798 5797 5796 5795 5795 5795 5794 5794 5794 5793 5793 5792 5792 5791 5790 5790 5789 5787 5786 5785 5784 5782 5781 5779 5778 5777 5776 5775 5773 5772 5772 5771
5799 5800 5801 5802 5802 5802 5802 5805 5802 5801 5800 5800 5799 5798 5797 5796 5795 5794 5793 5792 5791 5790 5790 5789 5789 5788 5788 5787 5787 5786 5786 5785 5784 5783 5782 5781 5780 5778 5777 5775 5773 5772 5771 5770 5768 5767 5766 5765 5764